EW5836 Weather Reports


Display with metric or nautical units.
time (UTC)temp
F
wind
direction
speed
MPH
gust
MPH
rain 1hr
in
rain 24hr
in
rain mn
in
humidity
%
barometer
mb
20260906052535 75 312 0.0 0.0 0.00 0.00 0.00 67 1022.6
20260906052041 75 312 0.0 0.0 0.00 0.00 0.00 66 1022.5
20260906051542 75 312 0.0 0.0 0.00 0.00 0.00 65 1022.4
20260906051059 75 312 0.0 2.0 0.00 0.00 0.00 66 1022.3
20260906050538 75 27 0.0 2.0 0.00 0.00 0.00 65 1022.3
20260906050046 74 324 0.0 0.0 0.00 0.00 0.00 64 1022.2
20260906045610 74 324 0.0 1.0 0.00 0.00 0.00 63 1022.1
20260906045045 74 324 0.0 1.0 0.00 0.00 0.00 65 1022.1
20260906044546 74 324 0.0 0.0 0.00 0.00 0.00 63 1022.1
20260906044054 74 324 0.0 0.0 0.00 0.00 0.00 62 1022.1
20260906043536 74 324 0.0 0.0 0.00 0.00 0.00 61 1022.1
20260906043043 74 324 0.0 0.0 0.00 0.00 0.00 62 1022.0
20260906042544 74 324 0.0 0.0 0.00 0.00 0.00 64 1022.0
20260906042032 74 324 0.0 0.0 0.00 0.00 0.00 64 1022.0
20260906041535 74 324 0.0 0.0 0.00 0.00 0.00 64 1022.0
20260906041046 74 324 0.0 0.0 0.00 0.00 0.00 62 1022.0
20260906040549 73 324 0.0 0.0 0.00 0.00 0.00 63 1022.0
20260906040040 73 324 0.0 0.0 0.00 0.00 0.00 64 1022.0
20260906035542 73 324 0.0 0.0 0.00 0.00 0.00 66 1021.9
20260906035048 73 324 0.0 0.0 0.00 0.00 0.00 67 1021.9
20260906034544 73 324 0.0 0.0 0.00 0.00 0.00 67 1021.9
20260906034054 73 324 0.0 0.0 0.00 0.00 0.00 64 1021.7
20260906033535 73 324 0.0 2.0 0.00 0.00 0.00 65 1021.7
20260906033046 74 324 0.0 2.0 0.00 0.00 0.00 65 1021.7
20260906032551 74 324 0.0 2.0 0.00 0.00 0.00 64 1021.6
20260906032041 74 324 0.0 2.0 0.00 0.00 0.00 65 1021.6
20260906031545 74 324 0.0 0.0 0.00 0.00 0.00 64 1021.6
20260906031037 74 324 0.0 0.0 0.00 0.00 0.00 64 1021.6
20260906030542 74 324 0.0 0.0 0.00 0.00 0.00 64 1021.5
20260906030048 74 324 0.0 0.0 0.00 0.00 0.00 63 1021.6
20260906025543 74 324 0.0 0.0 0.00 0.00 0.00 63 1021.5
20260906025034 75 324 0.0 3.0 0.00 0.00 0.00 62 1021.4
20260906024536 75 324 0.0 4.0 0.00 0.00 0.00 62 1021.3
20260906024048 75 324 0.0 4.0 0.00 0.00 0.00 63 1021.2
20260906023611 75 324 1.0 3.0 0.00 0.00 0.00 63 1021.2
20260906023036 75 324 0.0 0.0 0.00 0.00 0.00 64 1021.1
20260906022539 75 324 0.0 3.0 0.00 0.00 0.00 63 1021.1
20260906022050 75 324 1.0 4.0 0.00 0.00 0.00 62 1021.1
20260906021554 75 324 2.0 4.0 0.00 0.00 0.00 62 1021.0
20260906021040 76 324 0.0 2.0 0.00 0.00 0.00 61 1021.0
20260906020543 76 324 0.0 4.0 0.00 0.00 0.00 60 1021.0
20260906020033 76 324 2.0 5.0 0.00 0.00 0.00 61 1020.8
20260906015556 75 312 3.0 5.0 0.00 0.00 0.00 64 1020.9
20260906015045 75 300 0.0 0.0 0.00 0.00 0.00 63 1020.9
20260906014546 76 133 0.0 0.0 0.00 0.00 0.00 62 1021.0
20260906014106 77 302 0.0 0.0 0.00 0.00 0.00 60 1020.9
20260906013550 77 302 0.0 3.0 0.00 0.00 0.00 59 1020.8
20260906013040 77 249 0.0 2.0 0.00 0.00 0.00 59 1020.8
20260906012542 77 306 0.0 0.0 0.00 0.00 0.00 60 1020.8
20260906012121 76 306 0.0 0.0 0.00 0.00 0.00 60 1020.7
20260906011538 76 328 0.0 2.0 0.00 0.00 0.00 59 1020.7
20260906011047 75 328 0.0 2.0 0.00 0.00 0.00 62 1020.8
20260906010610 76 318 0.0 6.0 0.00 0.00 0.00 62 1020.8
20260906010108 76 248 1.0 8.0 0.00 0.00 0.00 61 1020.8
20260906005603 76 223 1.0 5.0 0.00 0.00 0.00 61 1020.8
20260906005033 76 245 3.0 5.0 0.00 0.00 0.00 61 1020.7
20260906004537 76 247 1.0 4.0 0.00 0.00 0.00 61 1020.8
20260906004047 76 266 0.0 4.0 0.00 0.00 0.00 61 1020.8
20260906003552 75 282 0.0 4.0 0.00 0.00 0.00 62 1020.7
20260906003040 75 297 0.0 0.0 0.00 0.00 0.00 63 1020.6
20260906002537 75 297 0.0 0.0 0.00 0.00 0.00 63 1020.6
20260906002044 75 283 0.0 0.0 0.00 0.00 0.00 63 1020.6
20260906001604 75 283 0.0 0.0 0.00 0.00 0.00 63 1020.6
20260906001102 76 306 0.0 0.0 0.00 0.00 0.00 62 1020.6
20260906000603 76 315 0.0 0.0 0.00 0.00 0.00 61 1020.5
20260906000100 75 315 0.0 2.0 0.00 0.00 0.00 60 1020.5
20260905235537 75 315 0.0 4.0 0.00 0.00 0.00 61 1020.5
20260905235044 75 326 1.0 4.0 0.00 0.00 0.00 61 1020.6
20260905234547 76 326 0.0 0.0 0.00 0.00 0.00 60 1020.6
20260905234056 76 326 0.0 1.0 0.00 0.00 0.00 60 1020.5
20260905233535 75 327 0.0 1.0 0.00 0.00 0.00 62 1020.6
20260905233042 76 330 0.0 0.0 0.00 0.00 0.00 61 1020.6
20260905232546 76 330 0.0 0.0 0.00 0.00 0.00 60 1020.6
20260905232103 76 330 0.0 0.0 0.00 0.00 0.00 60 1020.5
20260905231546 76 330 0.0 0.0 0.00 0.00 0.00 61 1020.5
20260905231036 76 330 0.0 0.0 0.00 0.00 0.00 61 1020.5
20260905230540 77 330 0.0 0.0 0.00 0.00 0.00 60 1020.6
20260905230040 77 330 0.0 0.0 0.00 0.00 0.00 58 1020.6
20260905225543 77 330 0.0 0.0 0.00 0.00 0.00 58 1020.6
20260905225101 77 330 0.0 0.0 0.00 0.00 0.00 59 1020.5
20260905224536 77 330 0.0 0.0 0.00 0.00 0.00 57 1020.6
20260905224042 78 330 0.0 0.0 0.00 0.00 0.00 57 1020.6
20260905223543 79 330 0.0 0.0 0.00 0.00 0.00 57 1020.6
20260905223035 79 330 0.0 0.0 0.00 0.00 0.00 55 1020.6
20260905222538 79 330 0.0 0.0 0.00 0.00 0.00 54 1020.5
20260905222048 79 330 0.0 0.0 0.00 0.00 0.00 54 1020.5
20260905221544 79 330 0.0 0.0 0.00 0.00 0.00 55 1020.5
20260905221037 79 330 0.0 0.0 0.00 0.00 0.00 54 1020.5
20260905220601 80 330 0.0 0.0 0.00 0.00 0.00 54 1020.4
20260905220055 80 330 0.0 0.0 0.00 0.00 0.00 53 1020.3
20260905215549 80 325 0.0 0.0 0.00 0.00 0.00 54 1020.3
20260905215035 80 325 0.0 5.0 0.00 0.00 0.00 53 1020.2
20260905214537 79 244 1.0 5.0 0.00 0.00 0.00 53 1020.1
20260905214045 80 213 0.0 0.0 0.00 0.00 0.00 53 1020.1
20260905213546 80 256 0.0 0.0 0.00 0.00 0.00 53 1020.0
20260905213051 80 238 0.0 0.0 0.00 0.00 0.00 54 1020.1
20260905212533 80 238 0.0 0.0 0.00 0.00 0.00 54 1020.0
20260905212042 80 238 0.0 0.0 0.00 0.00 0.00 53 1019.9
20260905211545 80 238 0.0 0.0 0.00 0.00 0.00 53 1019.9
20260905211102 80 238 0.0 0.0 0.00 0.00 0.00 54 1019.9
20260905210542 80 238 0.0 0.0 0.00 0.00 0.00 54 1019.8
20260905210101 79 303 0.0 0.0 0.00 0.00 0.00 56 1019.9
20260905205535 79 310 0.0 0.0 0.00 0.00 0.00 58 1019.9
20260905205041 80 313 0.0 0.0 0.00 0.00 0.00 56 1019.9
20260905204606 81 313 0.0 0.0 0.00 0.00 0.00 56 1019.8
20260905204056 81 313 0.0 0.0 0.00 0.00 0.00 54 1019.8
20260905203537 81 313 0.0 0.0 0.00 0.00 0.00 55 1019.7
20260905203050 81 313 0.0 0.0 0.00 0.00 0.00 55 1019.7
20260905202551 81 313 0.0 0.0 0.00 0.00 0.00 55 1019.6
20260905202038 81 313 0.0 0.0 0.00 0.00 0.00 56 1019.5
20260905201540 81 313 0.0 0.0 0.00 0.00 0.00 56 1019.5
20260905201047 81 313 0.0 0.0 0.00 0.00 0.00 57 1019.4
20260905200549 81 313 0.0 0.0 0.00 0.00 0.00 57 1019.4
20260905200035 80 313 0.0 0.0 0.00 0.00 0.00 58 1019.3
20260905195539 81 304 0.0 0.0 0.00 0.00 0.00 59 1019.4
20260905195118 81 304 0.0 0.0 0.00 0.00 0.00 57 1019.3
20260905194533 81 305 0.0 0.0 0.00 0.00 0.00 57 1019.2
20260905194042 81 304 0.0 0.0 0.00 0.00 0.00 57 1019.1
20260905193546 81 307 0.0 0.0 0.00 0.00 0.00 58 1019.1
20260905193034 81 308 0.0 0.0 0.00 0.00 0.00 58 1019.0
20260905192537 81 308 0.0 0.0 0.00 0.00 0.00 58 1019.0
20260905192044 81 308 0.0 0.0 0.00 0.00 0.00 59 1019.0
20260905191545 81 308 0.0 0.0 0.00 0.00 0.00 59 1018.9
20260905191056 81 310 0.0 0.0 0.00 0.00 0.00 58 1018.9
20260905190532 81 310 0.0 0.0 0.00 0.00 0.00 59 1018.8
20260905190043 81 310 0.0 0.0 0.00 0.00 0.00 58 1018.8
20260905185607 82 311 0.0 0.0 0.00 0.00 0.00 58 1018.8
20260905185038 82 310 0.0 0.0 0.00 0.00 0.00 58 1018.6
20260905184541 82 312 0.0 0.0 0.00 0.00 0.00 58 1018.6
20260905184046 82 312 0.0 0.0 0.00 0.00 0.00 57 1018.5
20260905183551 82 316 0.0 0.0 0.00 0.00 0.00 57 1018.4
20260905183038 82 328 0.0 0.0 0.00 0.00 0.00 57 1018.3
20260905182542 82 330 0.0 0.0 0.00 0.00 0.00 57 1018.3
20260905182056 83 336 0.0 0.0 0.00 0.00 0.00 57 1018.2
20260905181533 83 337 0.0 0.0 0.00 0.00 0.00 56 1018.2
20260905181044 83 344 0.0 0.0 0.00 0.00 0.00 56 1018.1
20260905180545 83 344 0.0 0.0 0.00 0.00 0.00 56 1018.1
20260905180103 84 344 0.0 0.0 0.00 0.00 0.00 57 1018.0
20260905175540 84 344 0.0 0.0 0.00 0.00 0.00 54 1017.9
20260905175058 85 344 0.0 0.0 0.00 0.00 0.00 53 1017.9
20260905174542 85 344 0.0 0.0 0.00 0.00 0.00 51 1017.8
20260905174033 86 344 0.0 0.0 0.00 0.00 0.00 48 1017.8
20260905173534 86 344 0.0 0.0 0.00 0.00 0.00 48 1017.7
20260905173045 87 344 0.0 0.0 0.00 0.00 0.00 46 1017.7
20260905172548 87 344 0.0 0.0 0.00 0.00 0.00 44 1017.6
20260905172036 87 344 0.0 0.0 0.00 0.00 0.00 44 1017.6
20260905171538 88 344 0.0 0.0 0.00 0.00 0.00 44 1017.6
20260905171047 88 344 0.0 0.0 0.00 0.00 0.00 44 1017.5
20260905170551 88 344 0.0 0.0 0.00 0.00 0.00 44 1017.6
20260905170041 88 344 0.0 0.0 0.00 0.00 0.00 43 1017.6
20260905165545 89 344 0.0 0.0 0.00 0.00 0.00 43 1017.6
20260905165121 89 344 0.0 0.0 0.00 0.00 0.00 42 1017.6
20260905164536 89 344 0.0 0.0 0.00 0.00 0.00 43 1017.6
20260905164048 90 345 0.0 0.0 0.00 0.00 0.00 43 1017.6
20260905163551 90 345 0.0 0.0 0.00 0.00 0.00 42 1017.6
20260905163036 90 344 0.0 0.0 0.00 0.00 0.00 42 1017.6
20260905162539 91 346 0.0 4.0 0.00 0.00 0.00 42 1017.6
20260905162057 91 346 0.0 5.0 0.00 0.00 0.00 42 1017.6
20260905161534 92 346 4.0 5.0 0.00 0.00 0.00 41 1017.6
20260905161044 92 348 3.0 5.0 0.00 0.00 0.00 40 1017.6
20260905160548 92 345 3.0 5.0 0.00 0.00 0.00 40 1017.6
20260905160037 93 345 3.0 5.0 0.00 0.00 0.00 39 1017.6
20260905155540 94 344 3.0 4.0 0.00 0.00 0.00 38 1017.6
20260905155043 94 344 2.0 4.0 0.00 0.00 0.00 38 1017.6
20260905154544 94 344 2.0 4.0 0.00 0.00 0.00 39 1017.6
20260905154057 93 79 0.0 0.0 0.00 0.00 0.00 37 1017.6
20260905153534 93 80 0.0 0.0 0.00 0.00 0.00 38 1017.5
20260905153044 93 24 0.0 0.0 0.00 0.00 0.00 38 1017.6
20260905152546 93 25 0.0 2.0 0.00 0.00 0.00 38 1017.6
20260905152041 92 42 0.0 2.0 0.00 0.00 0.00 38 1017.6
20260905151543 92 143 0.0 4.0 0.00 0.00 0.00 39 1017.6
20260905151033 92 130 3.0 4.0 0.00 0.00 0.00 39 1017.6
20260905150555 93 120 2.0 4.0 0.00 0.00 0.00 41 1017.7
20260905150037 93 154 1.0 5.0 0.00 0.00 0.00 40 1017.7
20260905145540 93 154 1.0 5.0 0.00 0.00 0.00 40 1017.7
20260905145032 92 162 1.0 4.0 0.00 0.00 0.00 41 1017.7
20260905144535 92 162 0.0 5.0 0.00 0.00 0.00 40 1017.7
20260905144041 92 162 2.0 5.0 0.00 0.00 0.00 42 1017.7
20260905143543 93 138 3.0 4.0 0.00 0.00 0.00 42 1017.7
20260905143039 92 97 1.0 4.0 0.00 0.00 0.00 41 1017.8
20260905142541 92 167 0.0 4.0 0.00 0.00 0.00 42 1017.8
20260905142045 91 170 0.0 0.0 0.00 0.00 0.00 42 1017.9
20260905141601 91 170 0.0 3.0 0.00 0.00 0.00 45 1017.9
20260905141100 91 152 0.0 8.0 0.00 0.00 0.00 46 1017.9
20260905140536 91 151 3.0 8.0 0.00 0.00 0.00 46 1017.9
20260905140047 91 173 0.0 0.0 0.00 0.00 0.00 46 1017.9
20260905135547 91 158 0.0 0.0 0.00 0.00 0.00 45 1018.0
20260905135036 91 124 0.0 0.0 0.00 0.00 0.00 46 1018.0
20260905134538 91 125 0.0 3.0 0.00 0.00 0.00 45 1018.1
20260905134045 91 163 0.0 3.0 0.00 0.00 0.00 46 1018.0
20260905133548 91 116 1.0 5.0 0.00 0.00 0.00 48 1018.1
20260905133048 91 150 0.0 3.0 0.00 0.00 0.00 48 1018.1
20260905132551 91 150 0.0 3.0 0.00 0.00 0.00 48 1018.1
20260905132035 90 150 0.0 7.0 0.00 0.00 0.00 47 1018.2
20260905131539 90 95 0.0 7.0 0.00 0.00 0.00 49 1018.2
20260905131050 90 138 0.0 8.0 0.00 0.00 0.00 51 1018.3
20260905130552 90 154 3.0 8.0 0.00 0.00 0.00 50 1018.3
20260905130040 90 144 3.0 8.0 0.00 0.00 0.00 48 1018.3
20260905125545 90 143 2.0 8.0 0.00 0.00 0.00 49 1018.4
20260905125038 90 90 1.0 10.0 0.00 0.00 0.00 48 1018.4
20260905124541 90 112 0.0 10.0 0.00 0.00 0.00 49 1018.4
20260905124046 90 88 2.0 6.0 0.00 0.00 0.00 50 1018.4
20260905123546 90 154 0.0 7.0 0.00 0.00 0.00 50 1018.4
20260905123103 90 103 0.0 7.0 0.00 0.00 0.00 50 1018.4
20260905122545 90 84 2.0 6.0 0.00 0.00 0.00 51 1018.3
20260905122054 89 81 0.0 8.0 0.00 0.00 0.00 51 1018.4
20260905121534 90 140 3.0 8.0 0.00 0.00 0.00 52 1018.4
20260905121048 89 56 0.0 3.0 0.00 0.00 0.00 53 1018.5
20260905120552 89 122 0.0 2.0 0.00 0.00 0.00 53 1018.5
20260905120108 89 118 0.0 9.0 0.00 0.00 0.00 52 1018.5
20260905115545 89 149 3.0 9.0 0.00 0.00 0.00 54 1018.5
20260905115121 89 162 3.0 9.0 0.00 0.00 0.00 53 1018.5
20260905114535 90 152 1.0 6.0 0.00 0.00 0.00 53 1018.6
20260905114045 89 83 0.0 3.0 0.00 0.00 0.00 51 1018.7
20260905113550 89 137 0.0 3.0 0.00 0.00 0.00 52 1018.6
20260905113046 89 152 0.0 0.0 0.00 0.00 0.00 50 1018.8
20260905112548 89 160 0.0 3.0 0.00 0.00 0.00 53 1018.8
20260905112039 88 190 0.0 3.0 0.00 0.00 0.00 54 1018.8
20260905111536 88 63 0.0 0.0 0.00 0.00 0.00 54 1018.8
20260905111040 87 142 0.0 0.0 0.00 0.00 0.00 54 1018.7
20260905110541 87 167 0.0 0.0 0.00 0.00 0.00 55 1018.9
20260905110037 87 263 0.0 1.0 0.00 0.00 0.00 55 1018.8
20260905105536 86 174 0.0 7.0 0.00 0.00 0.00 56 1018.8
20260905105046 86 152 0.0 9.0 0.00 0.00 0.00 55 1018.7
20260905104548 86 131 2.0 9.0 0.00 0.00 0.00 55 1018.7
20260905104037 86 154 5.0 8.0 0.00 0.00 0.00 54 1018.8
20260905103539 86 174 3.0 7.0 0.00 0.00 0.00 56 1018.8
20260905103043 86 149 2.0 7.0 0.00 0.00 0.00 56 1018.9
20260905102606 86 130 5.0 7.0 0.00 0.00 0.00 56 1019.0
20260905102051 86 146 1.0 6.0 0.00 0.00 0.00 55 1019.0
20260905101554 86 149 1.0 6.0 0.00 0.00 0.00 54 1019.0
20260905101038 86 156 0.0 7.0 0.00 0.00 0.00 57 1019.0
20260905100539 85 144 2.0 7.0 0.00 0.00 0.00 60 1018.9
20260905100043 85 140 0.0 5.0 0.00 0.00 0.00 59 1019.0
20260905095545 84 140 0.0 5.0 0.00 0.00 0.00 59 1019.0
20260905095035 85 110 0.0 0.0 0.00 0.00 0.00 59 1019.1
20260905094536 84 156 0.0 0.0 0.00 0.00 0.00 59 1019.1
20260905094043 84 158 0.0 0.0 0.00 0.00 0.00 60 1019.1
20260905093541 83 158 0.0 0.0 0.00 0.00 0.00 60 1019.1
20260905093050 82 158 0.0 0.0 0.00 0.00 0.00 61 1019.1
20260905092551 82 158 0.0 0.0 0.00 0.00 0.00 62 1019.0
20260905092042 82 158 0.0 0.0 0.00 0.00 0.00 63 1019.0
20260905091541 82 158 0.0 0.0 0.00 0.00 0.00 66 1019.0
20260905091100 81 158 0.0 0.0 0.00 0.00 0.00 68 1019.0
20260905090535 81 158 0.0 0.0 0.00 0.00 0.00 68 1018.9
20260905090044 81 158 0.0 0.0 0.00 0.00 0.00 68 1019.0
20260905085548 81 158 0.0 0.0 0.00 0.00 0.00 69 1019.0
20260905085037 81 158 0.0 6.0 0.00 0.00 0.00 68 1018.9
20260905084541 81 158 2.0 6.0 0.00 0.00 0.00 68 1018.8
20260905084101 81 162 0.0 0.0 0.00 0.00 0.00 69 1018.8
20260905083543 81 162 0.0 0.0 0.00 0.00 0.00 68 1018.9
20260905083057 80 162 0.0 0.0 0.00 0.00 0.00 68 1018.9
20260905082532 80 162 0.0 0.0 0.00 0.00 0.00 68 1018.8
20260905082040 80 162 0.0 0.0 0.00 0.00 0.00 69 1018.7
20260905081542 80 162 0.0 0.0 0.00 0.00 0.00 69 1018.6
20260905081032 79 162 0.0 0.0 0.00 0.00 0.00 70 1018.8
20260905080556 79 162 0.0 0.0 0.00 0.00 0.00 71 1018.7
20260905080045 79 162 0.0 4.0 0.00 0.00 0.00 70 1018.8
20260905075548 79 164 1.0 4.0 0.00 0.00 0.00 71 1018.7
20260905075035 79 127 0.0 0.0 0.00 0.00 0.00 71 1018.8
20260905074533 78 127 0.0 0.0 0.00 0.00 0.00 73 1018.7
20260905074040 78 155 0.0 0.0 0.00 0.00 0.00 73 1018.6
20260905073544 77 155 0.0 0.0 0.00 0.00 0.00 74 1018.5
20260905073043 77 157 0.0 0.0 0.00 0.00 0.00 74 1018.5
20260905072546 77 158 0.0 0.0 0.00 0.00 0.00 74 1018.5
20260905072034 77 312 0.0 0.0 0.00 0.00 0.00 74 1018.6
20260905071535 77 312 0.0 0.0 0.00 0.00 0.00 75 1018.7
20260905071043 76 312 0.0 0.0 0.00 0.00 0.00 75 1018.5
20260905070542 76 312 0.0 0.0 0.00 0.00 0.00 75 1018.6
20260905070050 76 312 0.0 0.0 0.00 0.00 0.00 75 1018.6
20260905065551 76 312 0.0 0.0 0.00 0.00 0.00 75 1018.6
20260905065108 76 312 0.0 0.0 0.00 0.00 0.00 75 1018.6
20260905064104 76 312 0.0 0.0 0.00 0.00 0.00 75 1018.6
20260905063547 75 312 0.0 0.0 0.00 0.00 0.00 75 1018.6
20260905063059 75 312 0.0 0.0 0.00 0.00 0.00 74 1018.5
20260905062553 74 312 0.0 0.0 0.00 0.00 0.00 76 1018.5
20260905062042 74 312 0.0 0.0 0.00 0.00 0.00 77 1018.5
20260905061601 74 312 0.0 0.0 0.00 0.00 0.00 75 1018.5
20260905061059 74 312 0.0 0.0 0.00 0.00 0.00 75 1018.5
20260905060538 74 312 0.0 0.0 0.00 0.00 0.00 75 1018.5
20260905060047 73 312 0.0 0.0 0.00 0.00 0.00 74 1018.4
20260905055546 74 312 0.0 0.0 0.00 0.00 0.00 75 1018.4
20260905055059 74 312 0.0 0.0 0.00 0.00 0.00 75 1018.4
20260905054532 73 312 0.0 0.0 0.00 0.00 0.00 76 1018.3
20260905054039 72 312 0.0 0.0 0.00 0.00 0.00 77 1018.3
20260905053539 72 312 0.0 0.0 0.00 0.00 0.00 78 1018.3
20260905053048 72 312 0.0 0.0 0.00 0.00 0.00 78 1018.2